When you browse on this site, cookies collect data to enhance your experience and personalize the content and advertising you see.
Visit our Privacy Policy to learn more. By continuing to use the site, you agree to this use of cookies and data.
  • In Hungary
  • List of Countries
  • For 7 days
  • Water Temperature
  • Satellite Maps
  • Weather Map
  • News
  • Weather Widgets
  • user-avatar
    Login

    Hourly Weather Beldno

    Today, 22 May, Wednesday

    Time Temperature Precipitation Wind Pressure Humidity
    00:00 +12°C° 0.4 mm 4 mps 718 mmHg 92%
    01:00 +12°C° 0.4 mm 4 mps 718 mmHg 92%
    02:00 +11°C° 0.9 mm 4 mps 718 mmHg 93%
    03:00 +11°C° 0.9 mm 3 mps 718 mmHg 94%
    04:00 +11°C° 0.9 mm 3 mps 718 mmHg 94%
    05:00 +11°C° 0.8 mm 3 mps 718 mmHg 94%
    06:00 +12°C° 0.8 mm 3 mps 719 mmHg 94%
    07:00 +12°C° 0.8 mm 3 mps 719 mmHg 93%
    08:00 +13°C° 0.7 mm 3 mps 719 mmHg 92%
    09:00 +13°C° 0.7 mm 3 mps 719 mmHg 91%
    10:00 +14°C° 0.7 mm 3 mps 720 mmHg 90%
    11:00 +14°C° 0.9 mm 3 mps 720 mmHg 89%
    12:00 +16°C° 0.9 mm 3 mps 720 mmHg 88%
    13:00 +16°C° 0.9 mm 3 mps 720 mmHg 87%
    14:00 +16°C° 0.9 mm 3 mps 720 mmHg 87%
    15:00 +16°C° 0.9 mm 3 mps 720 mmHg 87%
    16:00 +15°C° 0.9 mm 4 mps 720 mmHg 86%
    17:00 +15°C° 1.4 mm 4 mps 720 mmHg 88%
    18:00 +14°C° 1.4 mm 4 mps 720 mmHg 90%
    19:00 +13°C° 1.4 mm 5 mps 720 mmHg 92%
    20:00 +13°C° 1.7 mm 5 mps 721 mmHg 93%
    21:00 +13°C° 1.7 mm 5 mps 721 mmHg 95%
    22:00 +13°C° 1.7 mm 5 mps 721 mmHg 96%
    23:00 +13°C° 0.8 mm 5 mps 722 mmHg 96%

    Tomorrow, 23 May, Thursday

    Time Temperature Precipitation Wind Pressure Humidity
    00:00 +13°C° 0.8 mm 5 mps 722 mmHg 97%
    01:00 +13°C° 0.8 mm 5 mps 722 mmHg 97%
    02:00 +12°C° 1.1 mm 4 mps 722 mmHg 97%
    03:00 +12°C° 1.1 mm 4 mps 722 mmHg 97%
    04:00 +12°C° 1.1 mm 4 mps 723 mmHg 97%
    05:00 +12°C° 1.5 mm 4 mps 723 mmHg 97%
    06:00 +12°C° 1.5 mm 4 mps 723 mmHg 97%
    07:00 +12°C° 1.5 mm 3 mps 723 mmHg 97%
    08:00 +12°C° 1.6 mm 3 mps 724 mmHg 96%
    09:00 +12°C° 1.6 mm 3 mps 724 mmHg 96%
    10:00 +12°C° 1.6 mm 3 mps 724 mmHg 96%
    11:00 +12°C° 1.2 mm 4 mps 725 mmHg 96%
    12:00 +11°C° 1.2 mm 4 mps 725 mmHg 96%
    13:00 +11°C° 1.2 mm 4 mps 725 mmHg 96%
    14:00 +11°C° 0.6 mm 4 mps 725 mmHg 95%
    15:00 +10°C° 0.6 mm 5 mps 725 mmHg 95%
    16:00 +10°C° 0.6 mm 5 mps 725 mmHg 95%
    17:00 +11°C° 0.6 mm 4 mps 725 mmHg 95%
    18:00 +10°C° 0.6 mm 4 mps 725 mmHg 95%
    19:00 +10°C° 0.6 mm 4 mps 726 mmHg 96%
    20:00 +10°C° 0.3 mm 4 mps 726 mmHg 95%
    21:00 +10°C° 0.3 mm 3 mps 726 mmHg 95%
    22:00 +10°C° 0.3 mm 3 mps 726 mmHg 94%
    23:00 +10°C° 0.1 mm 3 mps 726 mmHg 94%

    Day after tomorrow, 24 May, Friday

    Time Temperature Precipitation Wind Pressure Humidity
    00:00 +10°C° 0.1 mm 3 mps 726 mmHg 94%
    01:00 +10°C° 0.1 mm 3 mps 726 mmHg 94%
    02:00 +10°C° 0.1 mm 3 mps 726 mmHg 94%
    03:00 +9°C° 0.1 mm 2 mps 726 mmHg 94%
    04:00 +9°C° 0.1 mm 2 mps 726 mmHg 94%
    05:00 +10°C° 0 mm 2 mps 727 mmHg 91%
    06:00 +10°C° 0 mm 2 mps 727 mmHg 89%
    07:00 +10°C° 0 mm 2 mps 727 mmHg 86%
    08:00 +11°C° 0 mm 3 mps 727 mmHg 77%
    09:00 +12°C° 0 mm 3 mps 727 mmHg 67%
    10:00 +14°C° 0 mm 3 mps 727 mmHg 58%
    11:00 +16°C° 0 mm 3 mps 727 mmHg 55%
    12:00 +17°C° 0 mm 3 mps 727 mmHg 53%
    13:00 +17°C° 0 mm 3 mps 727 mmHg 50%
    14:00 +18°C° 0 mm 3 mps 726 mmHg 52%
    15:00 +18°C° 0 mm 3 mps 726 mmHg 54%
    16:00 +18°C° 0 mm 3 mps 726 mmHg 56%
    17:00 +16°C° 0 mm 2 mps 725 mmHg 63%
    18:00 +15°C° 0 mm 2 mps 725 mmHg 70%
    19:00 +13°C° 0 mm 1 mps 725 mmHg 78%
    20:00 +12°C° 0 mm 1 mps 725 mmHg 80%
    21:00 +11°C° 0 mm 1 mps 725 mmHg 83%
    22:00 +10°C° 0 mm 1 mps 726 mmHg 85%
    23:00 +10°C° 0 mm 1 mps 725 mmHg 86%

    25 May, Saturday

    Time Temperature Precipitation Wind Pressure Humidity
    00:00 +10°C° 0 mm 1 mps 725 mmHg 87%
    01:00 +9°C° 0 mm 1 mps 725 mmHg 87%
    02:00 +9°C° 0 mm 1 mps 725 mmHg 87%
    03:00 +8°C° 0 mm 2 mps 725 mmHg 87%
    04:00 +8°C° 0 mm 2 mps 725 mmHg 87%
    05:00 +10°C° 0 mm 2 mps 725 mmHg 82%
    06:00 +13°C° 0 mm 1 mps 725 mmHg 76%
    07:00 +16°C° 0 mm 1 mps 726 mmHg 70%
    08:00 +17°C° 0 mm 2 mps 726 mmHg 66%
    09:00 +18°C° 0 mm 3 mps 726 mmHg 62%
    10:00 +20°C° 0 mm 3 mps 726 mmHg 59%
    11:00 +20°C° 0.7 mm 3 mps 726 mmHg 63%
    12:00 +20°C° 0.7 mm 3 mps 725 mmHg 67%
    13:00 +20°C° 0.7 mm 3 mps 725 mmHg 72%
    14:00 +19°C° 0.5 mm 3 mps 725 mmHg 72%
    15:00 +19°C° 0.5 mm 3 mps 725 mmHg 73%
    16:00 +19°C° 0.5 mm 3 mps 725 mmHg 74%
    17:00 +18°C° 0.3 mm 2 mps 725 mmHg 78%
    18:00 +16°C° 0.3 mm 2 mps 725 mmHg 82%
    19:00 +15°C° 0.3 mm 1 mps 725 mmHg 86%
    20:00 +14°C° 0 mm 1 mps 725 mmHg 88%
    21:00 +13°C° 0 mm 1 mps 725 mmHg 89%
    22:00 +12°C° 0 mm 1 mps 726 mmHg 91%
    23:00 +12°C° 0 mm 1 mps 726 mmHg 92%

    26 May, Sunday

    Time Temperature Precipitation Wind Pressure Humidity
    00:00 +12°C° 0 mm 1 mps 726 mmHg 92%
    01:00 +10°C° 0 mm 0 mps 726 mmHg 92%
    02:00 +11°C° 0 mm 1 mps 725 mmHg 93%
    03:00 +10°C° 0 mm 1 mps 725 mmHg 94%
    04:00 +10°C° 0 mm 1 mps 725 mmHg 95%
    05:00 +11°C° 0 mm 1 mps 725 mmHg 91%
    06:00 +13°C° 0 mm 2 mps 725 mmHg 88%
    07:00 +14°C° 0 mm 2 mps 725 mmHg 84%
    08:00 +16°C° 0 mm 3 mps 725 mmHg 75%
    09:00 +17°C° 0 mm 4 mps 725 mmHg 66%
    10:00 +17°C° 0 mm 5 mps 725 mmHg 57%
    11:00 +19°C° 0 mm 5 mps 725 mmHg 54%
    12:00 +19°C° 0 mm 5 mps 725 mmHg 52%
    13:00 +20°C° 0 mm 6 mps 725 mmHg 49%
    14:00 +20°C° 0 mm 5 mps 724 mmHg 51%
    15:00 +19°C° 0 mm 5 mps 724 mmHg 53%
    16:00 +19°C° 0 mm 5 mps 724 mmHg 55%
    17:00 +18°C° 0 mm 4 mps 724 mmHg 61%
    18:00 +16°C° 0 mm 3 mps 724 mmHg 68%
    19:00 +15°C° 0 mm 2 mps 724 mmHg 74%
    20:00 +14°C° 0 mm 2 mps 725 mmHg 76%
    21:00 +13°C° 0 mm 2 mps 725 mmHg 78%
    22:00 +13°C° 0 mm 2 mps 725 mmHg 81%
    23:00 +12°C° 0 mm 2 mps 725 mmHg 84%

    27 May, Monday

    Time Temperature Precipitation Wind Pressure Humidity
    00:00 +12°C° 0 mm 2 mps 725 mmHg 87%
    01:00 +10°C° 0 mm 2 mps 725 mmHg 90%
    02:00 +10°C° 0 mm 2 mps 725 mmHg 89%
    03:00 +10°C° 0 mm 2 mps 725 mmHg 88%
    04:00 +10°C° 0 mm 2 mps 725 mmHg 88%
    05:00 +11°C° 0 mm 3 mps 726 mmHg 83%
    06:00 +13°C° 0 mm 3 mps 726 mmHg 77%
    07:00 +16°C° 0 mm 3 mps 726 mmHg 72%
    08:00 +17°C° 0 mm 3 mps 726 mmHg 68%
    09:00 +19°C° 0 mm 3 mps 726 mmHg 65%
    10:00 +20°C° 0 mm 3 mps 726 mmHg 61%
    11:00 +21°C° 0.3 mm 3 mps 726 mmHg 62%
    12:00 +21°C° 0.3 mm 3 mps 726 mmHg 63%
    13:00 +22°C° 0.3 mm 3 mps 725 mmHg 65%
    14:00 +22°C° 0.5 mm 3 mps 725 mmHg 68%
    15:00 +22°C° 0.5 mm 3 mps 725 mmHg 71%
    16:00 +22°C° 0.5 mm 3 mps 725 mmHg 74%
    17:00 +20°C° 0.5 mm 2 mps 725 mmHg 77%
    18:00 +19°C° 0.5 mm 2 mps 725 mmHg 81%
    19:00 +19°C° 0.5 mm 1 mps 725 mmHg 84%
    20:00 +18°C° 0.4 mm 1 mps 725 mmHg 86%
    21:00 +16°C° 0.4 mm 1 mps 725 mmHg 89%
    22:00 +15°C° 0.4 mm 2 mps 725 mmHg 91%
    23:00 +14°C° 0 mm 2 mps 725 mmHg 91%
    Show more